{"data":{"norad_id":53388,"intl_designator":"2022-097A","name":"STARLINK-4522","alt_names":[],"object_type":"PAYLOAD","status":"ACTIVE","operator":null,"country":"US","launch_date":"2022-08-10","launch_site_code":"AFETR","launch_vehicle":null,"mission":null,"orbit_class":"UNKNOWN","rcs_meters":null,"size_class":null,"mass_kg":null,"dimensions":null,"purposes":["comms"],"wikipedia_slug":null,"has_3d_model":false,"image_url":null,"decayed_at":null,"tle_current":{"epoch":"2026-09-19T19:05:47.889024Z","epoch_age_seconds":136223,"freshness":"FRESH","line1":"1 53388U 22097A   26262.79569316  .00000357  00000+0  21150-4 0  9998","line2":"2 53388  53.1613 325.6727 0001429  42.7557 317.3557 15.35400568228242","mean_motion":15.35400568,"eccentricity":0.0001429,"inclination_deg":53.1613,"raan_deg":325.6727,"arg_perigee_deg":42.7557,"mean_anomaly_deg":317.3557,"bstar":2.115e-5,"rev_number":22824,"period_min":93.786600709399,"perigee_km":458.7538250271,"apogee_km":460.70808768902,"semimajor_km":6837.8679563581,"source":"CELESTRAK","updated_at":"2026-09-20T09:00:40.222704Z"}}}